Regional Weather Roundup
Issued by NWS

Home | Current Version | Previous Version | Text Only | Print | Product List | Glossary Off
Versions: 1 2 3 4 5 6 7 8 9 10 11 12 13 14 15 16 17 18 19 20 21 22 23 24 25 26 27 28 29 30 31 32 33 34 35 36 37 38 39 40 41 42 43 44 45 46 47 48 49 50

000
ASUS43 KDTX 251810
RWRMI
MICHIGAN HOURLY REGIONAL WEATHER ROUNDUP
NATIONAL WEATHER SERVICE DETROIT/PONTIAC MI
200 PM EDT SAT APR 25 2015

NOTE: "FAIR" INDICATES FEW OR NO CLOUDS BELOW 12,000 FEET WITH NO
SIGNIFICANT WEATHER AND/OR OBSTRUCTION TO VISIBILITY.

MIZ047>049-052>055-059>063-066>070-074>076-081>083-251900-
SOUTHEAST LOWER MICHIGAN

CITY           SKY/WX    TMP DP  RH WIND       PRES   REMARKS
ADRIAN         CLOUDY    46  33  60 SE15      29.83F
6HR MIN TEMP:  41; 6HR MAX TEMP:  47;

ALMA           MOSUNNY   51  29  42 E16G24    29.86F
ANN ARBOR      CLOUDY    49  28  44 E15G21    29.82F
BAD AXE        SUNNY     46  23  40 E13       29.91F
6HR MIN TEMP:  34; 6HR MAX TEMP:  46;

DETROIT CITY   PTSUNNY   45  28  51 E14       29.87F
6HR MIN TEMP:  41; 6HR MAX TEMP:  46;

DETROIT        CLOUDY    50  30  46 NE14G21   29.85F
6HR MIN TEMP:  42; 6HR MAX TEMP:  51;

FLINT          PTSUNNY   54  27  35 E13G20    29.85F
6HR MIN TEMP:  41; 6HR MAX TEMP:  54;

GROSSE ILE     PTSUNNY   48  28  46 E12G20    29.82F
HILLSDALE      CLOUDY    46  37  72 E16G22    29.79F
6HR MIN TEMP:  41; 6HR MAX TEMP:  46;

HOWELL         CLOUDY    49  28  43 E14       29.83F
6HR MIN TEMP:  39; 6HR MAX TEMP:  49;


CITY           SKY/WX    TMP DP  RH WIND       PRES   REMARKS
JACKSON        CLOUDY    47  35  63 E13       29.81F
6HR MIN TEMP:  40; 6HR MAX TEMP:  47;

LAMBERTVILLE   CLOUDY    46  32  57 E12G23    29.83S
LANSING        CLOUDY    51  31  46 E16G22    29.83F
6HR MIN TEMP:  41; 6HR MAX TEMP:  52;

LAPEER         NOT AVBL
MASON          CLOUDY    49  32  50 E10       29.81F
MONROE         CLOUDY    46  30  53 E13       29.82F
MT. CLEMENS    PTSUNNY   50  27  40 E12       29.84F
6HR MIN TEMP:  38; 6HR MAX TEMP:  50;

PONTIAC        PTSUNNY   48  24  39 E10       29.83F
6HR MIN TEMP:  38; 6HR MAX TEMP:  49;

PORT HOPE        N/A     39  29  67 NE13      29.94F
6HR MIN TEMP:  33; 6HR MAX TEMP:  39;

PORT HURON     MOSUNNY   46  25  42 NE13      29.88F
TRI CITIES     MOSUNNY   50  30  46 NE20      29.88F
6HR MIN TEMP:  36; 6HR MAX TEMP:  51;

YPSILANTI      CLOUDY    53  30  41 E17       29.84F
6HR MIN TEMP:  44; 6HR MAX TEMP:  55;

$$
MIZ043>046-050>051-056>058-064>065-071>073-077>080-251900-
SOUTHWEST LOWER MICHIGAN

CITY           SKY/WX    TMP DP  RH WIND       PRES   REMARKS
BATTLE CREEK   CLOUDY    47  37  68 E14       29.80F
6HR MIN TEMP:  41; 6HR MAX TEMP:  47;

BENTON HARBOR  CLOUDY    48  38  68 E13       29.79R
6HR MIN TEMP:  43; 6HR MAX TEMP:  50;

BIG RAPIDS     MOSUNNY   51  27  38 E8G16     29.84F
6HR MIN TEMP:  37; 6HR MAX TEMP:  51;

COLDWATER      CLOUDY    46  38  73 E13G18    29.79F
6HR MIN TEMP:  42; 6HR MAX TEMP:  47;

HOLLAND        CLOUDY    53  39  59 E12G21    29.81F
6HR MIN TEMP:  43; 6HR MAX TEMP:  53;

GRAND RAPIDS   PTSUNNY   51  33  50 E16G25    29.80F
6HR MIN TEMP:  38; 6HR MAX TEMP:  52;

KALAMAZOO      CLOUDY    47  38  71 E12G20    29.81S
6HR MIN TEMP:  43; 6HR MAX TEMP:  49;

MARSHALL       CLOUDY    46  37  71 E7G24     29.79F
MUSKEGON       PTSUNNY   52  34  50 E15G23    29.81F
6HR MIN TEMP:  41; 6HR MAX TEMP:  53;

$$
MIZ016>042-251900-
NORTHERN LOWER MICHIGAN

CITY           SKY/WX    TMP DP  RH WIND       PRES   REMARKS
ALPENA         SUNNY     49  23  36 SE12G17   29.95F
6HR MIN TEMP:  30; 6HR MAX TEMP:  49; 6HR PCP: TRACE;

BEAVER ISLAND  SUNNY     47  23  38 NE10G16   29.96F
6HR MIN TEMP:  30; 6HR MAX TEMP:  47;

BELLAIRE       CLOUDY    53   9  17 E9        29.90F
6HR MIN TEMP:  34; 6HR MAX TEMP:  53;

CADILLAC       CLOUDY    51  20  30 NE7       29.84F
CHARLEVOIX     MOSUNNY   44  30  59 N9        29.96F
6HR MIN TEMP:  33; 6HR MAX TEMP:  45;

FRANKFORT      MOCLDY    51  20  30 N7G18     29.88F
GAYLORD        SUNNY     48  17  29 NE10      29.89F
6HR MIN TEMP:  31; 6HR MAX TEMP:  49;

GRAYLING       CLOUDY    51  13  21 E7        29.89F
6HR MIN TEMP:  32; 6HR MAX TEMP:  52;

HARBOR SPRINGS SUNNY     50  21  32 NE8       29.93F
HOUGHTON LAKE  PTSUNNY   51  17  26 SE13      29.87F
6HR MIN TEMP:  33; 6HR MAX TEMP:  51;

MANISTEE       PTSUNNY   50  19  29 E9        29.87F
OSCODA         SUNNY     43  29  57 NE10      29.95F
PELLSTON       SUNNY     50  22  33 E14G24    29.95F
6HR MIN TEMP:  25; 6HR MAX TEMP:  50;

TRAVERSE CITY  MOSUNNY   50  24  36 N13       29.88F
6HR MIN TEMP:  37; 6HR MAX TEMP:  50;

$$
MIZ007>008-015-251900-
EASTERN UPPER MICHIGAN

CITY           SKY/WX    TMP DP  RH WIND       PRES   REMARKS
KINROSS        SUNNY     48  19  32 NE3       29.95F
6HR MIN TEMP:  30; 6HR MAX TEMP:  48;

MACKINAC ISLAN SUNNY     44  20  39 E12G17    29.97F
6HR MIN TEMP:  31; 6HR MAX TEMP:  44;

NEWBERRY       SUNNY     47  26  42 N9G18     29.96F
S. S. MARIE    SUNNY     49  24  37 SW8       29.95F
6HR MIN TEMP:  32; 6HR MAX TEMP:  51;

$$
MIZ004>006-011>014-085-251900-
CENTRAL UPPER MICHIGAN

CITY           SKY/WX    TMP DP  RH WIND       PRES   REMARKS
MANISTIQUE     SUNNY     47  22  37 SE10      29.96F
6HR MIN TEMP:  29; 6HR MAX TEMP:  47;

ESCANABA       SUNNY     48  21  34 E17G23    29.95F
6HR MIN TEMP:  34; 6HR MAX TEMP:  48;

MENOMINEE      MOSUNNY   43  19  39 E17       29.94F
6HR MIN TEMP:  37; 6HR MAX TEMP:  43;

SAWYER-GWINN   SUNNY     43  23  45 N14       29.97F
$$
MIZ001>003-009>011-084-251900-
WESTERN UPPER MICHIGAN

CITY           SKY/WX    TMP DP  RH WIND       PRES   REMARKS
IRON MOUNTAIN  SUNNY     51  12  21 E10G17    29.92F
6HR MIN TEMP:  32; 6HR MAX TEMP:  51;

HOUGHTON       SUNNY     41  21  44 E14       30.01S
6HR MIN TEMP:  31; 6HR MAX TEMP:  43;

COPPER HARBOR    N/A     39  31  72 E7        30.04S
6HR MIN TEMP:  29; 6HR MAX TEMP:  40;

IRONWOOD       SUNNY     48  30  49 N13G21    29.92S
6HR MIN TEMP:  37; 6HR MAX TEMP:  50;

$$

ABBREVIATIONS USED IN REMARKS
   TC - TEMPERATURE IN CELSIUS
  WCI - WIND CHILL INDEX
   HX - HEAT INDEX
  VSB - VISIBILITY




USA.gov is the U.S. government's official web portal to all federal, state and local government web resources and services.